Regional Weather Roundup
Issued by NWS Glasgow, MT

Home | Current Version | Previous Version | Text Only | Print | Product List | Glossary On
Versions: 1 2 3 4 5 6 7 8 9 10 11 12 13 14 15 16 17 18 19 20 21 22 23 24 25 26 27 28
000
ASUS45 KGGW 200615
RWRGGW
HOURLY WEATHER ROUNDUP FOR NORTHEAST MONTANA
NATIONAL WEATHER SERVICE GLASGOW MONTANA
1200 AM MDT SUN APR 20 2014

NOTE: "FAIR" INDICATES FEW OR NO CLOUDS BELOW 12,000 FEET WITH NO
SIGNIFICANT WEATHER AND/OR OBSTRUCTIONS TO VISISBILITY.

NORTHEAST MONTANA


CITY           SKY/WX    TMP DP  RH WIND       PRES   REMARKS
GLASGOW        CLEAR     42  29  59 E13       29.84F
6HR MIN TEMP:  40; 6HR MAX TEMP:  62;

PLENTYWOOD       N/A     39  33  79 SE6         N/A
WOLF POINT     CLEAR     36  27  69 NE5       29.88F
JORDAN           N/A     36  26  67 CALM      29.85S
WINNETT          N/A     41  26  55 SW5         N/A
SIDNEY         PTCLDY    37  30  75 NW3       29.92S
GLENDIVE       PTCLDY    45  21  39 S5        29.91S

FORT PECK REPORTS


CITY           SKY/WX    TMP DP  RH WIND       PRES   REMARKS
FORT PECK        N/A     49  26  41 E8          N/A
THE PINES        N/A     49  23  36 SE2         N/A

SOUTHEAST MONTANA


CITY           SKY/WX    TMP DP  RH WIND       PRES   REMARKS
BILLINGS       CLEAR     52  28  39 S7        29.86F
MILES CITY     CLEAR     47  25  42 S8        29.88F
BAKER          CLEAR     39  25  57 SE8       29.95S
LIVINGSTON     PTCLDY    58  21  24 SW24G33   29.84F

CENTRAL MONTANA


CITY           SKY/WX    TMP DP  RH WIND       PRES   REMARKS
HAVRE          MOCLDY    42  26  53 E3        29.79S
LEWISTOWN      MOCLDY    42  21  43 SE9       29.83F
GREAT FALLS    PTCLDY    45  20  36 SE7       29.79S
CUT BANK       CLEAR     42  24  49 W16       29.82R
HELENA         MOCLDY    49  20  31 NW5       29.82R
BUTTE          MOCLDY    39  25  57 CALM      29.91R
BOZEMAN        PTCLDY    45  24  43 SE3       29.86R

WESTERN MONTANA


CITY           SKY/WX    TMP DP  RH WIND       PRES   REMARKS
MISSOULA       LGT RAIN  48  36  63 NW22      30.03R
KALISPELL      NOT AVBL

NORTH DAKOTA


CITY           SKY/WX    TMP DP  RH WIND       PRES   REMARKS
WILLISTON      PTCLDY    32  28  85 CALM      29.92R
DICKINSON      CLEAR     34  24  67 S6        29.93F
MINOT          FAIR      36  31  82 SE5       29.95F
BISMARCK       CLEAR     39  32  76 NE5       29.99S

SOUTHERN SASKATCHEWAN


CITY           SKY/WX    TMP DP  RH WIND       PRES   REMARKS
REGINA         CLEAR     28  28 100 SE6       29.92S
ESTEVAN        CLEAR     30  30 100 E7        29.93S
SWIFT CURRENT  CLOUDY    34  30  86 E13G18    29.82F




USA.gov is the U.S. government's official web portal to all federal, state and local government web resources and services.